Mt. Pocono, PA

9:27 PM EST on December 15, 2019 (GMT -0500)
Pocono Mountains Municipal

Weather History for KMPO - September, 2019

Change the Weather History Date:

Wednesday, September 4, 2019

  Actual Average Record
Temperature  
Mean Temperature 69 °F 63 °F  
Max Temperature 79 °F 72 °F 88 °F (1973)
Min Temperature 59 °F 54 °F 31 °F (1908)
Degree Days  
Heating Degree Days 0 3  
Month to date heating degree days 2 12  
Since 1 July heating degree days 43 75  
Cooling Degree Days 4 1  
Month to date cooling degree days 7 4  
Year to date cooling degree days 325 300  
Growing Degree Days 19 (Base 50)    
Moisture  
Dew Point 63 °F    
Average Humidity 85    
Maximum Humidity 100    
Minimum Humidity 58    
Precipitation  
Precipitation T in 0.15 in 1.86 in (1905)
Month to date precipitation 0.72 0.60  
Year to date precipitation 35.65 31.58  
Sea Level Pressure  
Sea Level Pressure 29.98 in    
Wind  
Wind Speed 9 mph ()    
Max Wind Speed 23 mph    
Max Gust Speed 31 mph    
Visibility 10.0 miles    
Events      
T = Trace of Precipitation, MM = Missing Value Source: Averaged Metar Reports

Daily Weather History Graph

Daily Weather History Graph

Search for Another Location

Airport or City:

Astronomy

Sep. 04, 2019 Rise Set
Actual Time 6:30 AM EDT 7:29 PM EDT
Civil Twilight 6:02 AM EDT 7:57 PM EDT
Nautical Twilight 5:29 AM EDT 8:31 PM EDT
Astronomical Twilight 4:54 AM EDT 9:05 PM EDT
Moon 12:32 PM EDT (9/4) 10:59 PM EDT (9/4)
Length of Visible Light 13h 55m
Length of Day
12h 58m
Waxing Crescent, 34% of the Moon is Illuminated
Sep 4
Waxing Crescent
Sep 5
First Quarter
Sep 14
Full
Sep 21
Last Quarter
Sep 28
New

Hourly Weather History & Observations

Time (EDT) Temp. Dew Point Humidity Pressure Visibility Wind Dir Wind Speed Gust Speed Precip Events Conditions
12:53 AM 63.0 °F 61.0 °F 93% 30.02 in 10.0 mi SSE 6.9 mph - N/A   Overcast
1:23 AM 63.0 °F 62.1 °F 97% 30.04 in 10.0 mi SE 6.9 mph - N/A   Mostly Cloudy
1:40 AM 63.0 °F 62.1 °F 97% 30.04 in 10.0 mi Variable 6.9 mph - N/A   Overcast
1:53 AM 64.0 °F 62.1 °F 93% 30.01 in 10.0 mi South 6.9 mph - N/A   Overcast
2:19 AM 64.0 °F 63.0 °F 96% 30.03 in 10.0 mi South 6.9 mph - N/A   Overcast
2:53 AM 64.0 °F 63.0 °F 96% 29.99 in 10.0 mi Variable 5.8 mph - N/A   Overcast
3:53 AM 64.9 °F 64.0 °F 97% 29.97 in 10.0 mi South 11.5 mph 21.9 mph N/A   Overcast
4:51 AM 64.4 °F 64.4 °F 100% 30.00 in 10.0 mi SSW 13.8 mph - N/A   Overcast
4:53 AM 64.0 °F 64.0 °F 100% 29.97 in 10.0 mi SW 10.4 mph - N/A   Overcast
5:53 AM 64.9 °F 64.9 °F 100% 29.96 in 10.0 mi South 13.8 mph 24.2 mph N/A   Overcast
6:49 AM 64.4 °F 64.4 °F 100% 30.00 in 10.0 mi SW 15.0 mph - N/A   Overcast
6:53 AM 64.9 °F 64.0 °F 97% 29.97 in 10.0 mi SSW 11.5 mph - N/A   Overcast
7:53 AM 64.9 °F 64.9 °F 100% 29.99 in 10.0 mi SSW 10.4 mph 19.6 mph N/A   Overcast
8:53 AM 66.9 °F 66.0 °F 97% 29.98 in 10.0 mi SW 13.8 mph 19.6 mph N/A   Overcast
9:24 AM 68.0 °F 64.9 °F 90% 29.98 in 10.0 mi SSW 11.5 mph 21.9 mph N/A   Overcast
9:53 AM 68.0 °F 66.0 °F 93% 29.96 in 10.0 mi SSW 13.8 mph 21.9 mph N/A   Overcast
10:34 AM 69.1 °F 66.0 °F 90% 29.98 in 10.0 mi SSW 12.7 mph 20.7 mph N/A   Overcast
10:53 AM 71.1 °F 66.0 °F 84% 29.94 in 10.0 mi SSW 12.7 mph - N/A   Overcast
11:02 AM 72.0 °F 66.9 °F 84% 29.97 in 10.0 mi SSW 16.1 mph 24.2 mph N/A   Mostly Cloudy
11:53 AM 73.9 °F 66.0 °F 76% 29.93 in 10.0 mi SW 11.5 mph 19.6 mph N/A   Mostly Cloudy
12:53 PM 75.0 °F 66.9 °F 76% 29.93 in 10.0 mi WSW 13.8 mph - N/A   Overcast
1:53 PM 75.9 °F 66.0 °F 71% 29.93 in 10.0 mi SW 15.0 mph 24.2 mph N/A   Overcast
2:53 PM 75.9 °F 66.9 °F 74% 29.92 in 10.0 mi WSW 13.8 mph - 0.00 in   Mostly Cloudy
3:53 PM 79.0 °F 63.0 °F 58% 29.91 in 10.0 mi WSW 16.1 mph 24.2 mph N/A   Clear
4:53 PM 79.0 °F 63.0 °F 58% 29.91 in 10.0 mi West 19.6 mph 25.3 mph N/A   Partly Cloudy
5:53 PM 77.0 °F 62.1 °F 60% 29.93 in 10.0 mi NW 10.4 mph - N/A   Scattered Clouds
6:53 PM 75.0 °F 61.0 °F 62% 29.95 in 10.0 mi WNW 10.4 mph - N/A   Clear
7:53 PM 71.1 °F 61.0 °F 70% 29.97 in 10.0 mi NW 9.2 mph - N/A   Clear
8:53 PM 66.9 °F 59.0 °F 76% 30.00 in 10.0 mi NW 6.9 mph - N/A   Clear
9:53 PM 64.9 °F 57.0 °F 75% 30.02 in 10.0 mi NNW 15.0 mph - N/A   Clear
10:53 PM 63.0 °F 57.0 °F 81% 30.04 in 10.0 mi NNW 11.5 mph - N/A   Clear
11:53 PM 61.0 °F 55.9 °F 83% 30.05 in 10.0 mi NNW 12.7 mph - N/A   Clear